Flag for Greece Weather past 2 weeks in Corfu, Greece

Now
57 °F

Broken clouds.


Feels Like: 57 °F
Forecast: 49 / 63 °F
Wind: 5 mph from Southeast

Location: Kerkyra Airport

Current Time: Mar 27, 2015 at 7:44:16 AM

Latest Report: Mar 27, 2015 at 6:50 AM


Visibility: N/A

Pressure: 29.59 "Hg

Humidity: 94%

Dew point: 55 °F

Location of CorfuLocation

Historic Weather in Corfu — Graph

°F

Corfu temperature yesterday

Maximum temperature yesterday: 66 °F (at 11:50 AM)
Minimum temperature yesterday: 52 °F (at 6:50 AM)
Average temperature yesterday: 60 °F

Past Weeks' High & Low Weather Summary

 TemperatureHumidityPressure
High66 °F (Mar 24, 12:50 PM)100% (Mar 13, 1:50 AM)30.39 "Hg (Mar 13, 1:50 AM)
Low34 °F (Mar 21, 6:50 AM)32% (Mar 13, 3:50 PM)29.59 "Hg (Mar 27, 4:20 AM)
Average54 °F77%30.05 "Hg
* Reported Mar 12 6:20 AM — Mar 27 6:20 AM, Corfu, Weather by CustomWeather, © 2015

Note: Actual official high and low records may vary slightly from our data, if they occured in-between our weather recording intervals... More about our weather records

Advertising

Corfu weather history for previous 24 hours

 ConditionsComfort  
Time TempWeatherWind HumidityBarometerVisibility
6:20 AM
Fri, Mar 27
57 °FOvercast.5 mph88%29.59 "HgN/A
5:50 AM57 °FOvercast.5 mph88%29.59 "HgN/A
4:50 AM55 °FOvercast.7 mph94%29.59 "HgN/A
4:20 AM54 °FLight rain. Overcast.7 mph94%29.59 "HgN/A
3:50 AM54 °FLight rain. Overcast.3 mph94%29.62 "HgN/A
3:20 AM55 °FLight rain. Overcast.3 mph100%29.65 "HgN/A
2:20 AM55 °FLight rain. Overcast.3 mph100%29.65 "HgN/A
1:50 AM55 °FLight rain. Overcast.5 mph100%29.65 "HgN/A
1:20 AM55 °FLight rain. Mostly cloudy.No wind100%29.68 "HgN/A
12:50 AM55 °FLight rain. Mostly cloudy.3 mph100%29.68 "HgN/A
12:20 AM55 °FLight rain. Mostly cloudy.3 mph100%29.68 "HgN/A
11:50 PM
Thu, Mar 26
55 °FLight rain. Mostly cloudy.3 mph100%29.68 "HgN/A
10:50 PM57 °FLight rain. Mostly cloudy.6 mph94%29.68 "HgN/A
10:20 PM57 °FLight rain. Mostly cloudy.3 mph94%29.68 "Hg6 mi
9:50 PM57 °FLight rain. Mostly cloudy.3 mph94%29.68 "Hg6 mi
9:20 PM59 °FLight rain. Mostly cloudy.7 mph94%29.71 "Hg6 mi
8:50 PM59 °FLight rain. Mostly cloudy.3 mph94%29.71 "Hg5 mi
8:20 PM59 °FLight rain. Mostly cloudy.6 mph94%29.68 "Hg4 mi
7:50 PM59 °FLight rain. Mostly cloudy.No wind94%29.68 "HgN/A
7:20 PM61 °FLight rain. Mostly cloudy.No wind88%29.68 "HgN/A
6:50 PM61 °FMostly cloudy.6 mph88%29.68 "HgN/A
6:20 PM61 °FLight rain. Mostly cloudy.No wind88%29.68 "HgN/A
5:50 PM61 °FMostly cloudy.3 mph88%29.68 "HgN/A
5:20 PM61 °FLight rain. Mostly cloudy.5 mph88%29.68 "HgN/A
4:50 PM61 °FLight rain. Mostly cloudy.5 mph88%29.68 "HgN/A
4:20 PM64 °FLight rain. Mostly cloudy.No wind73%29.71 "HgN/A
3:50 PM64 °FLight rain. Mostly cloudy.No wind73%29.71 "HgN/A
3:20 PM64 °FPartly sunny.No wind73%29.74 "HgN/A
2:50 PM64 °FPartly sunny.3 mph73%29.74 "HgN/A
2:20 PM66 °FBroken clouds.3 mph64%29.74 "HgN/A
1:50 PM66 °FBroken clouds.3 mph64%29.74 "HgN/A
1:20 PM66 °FPartly sunny.3 mph68%29.77 "HgN/A
12:50 PM66 °FPartly sunny.3 mph68%29.77 "HgN/A
12:20 PM66 °FPartly sunny.5 mph68%29.77 "HgN/A
11:50 AM66 °FPartly sunny.No wind68%29.77 "HgN/A
11:20 AM64 °FPartly sunny.No wind68%29.80 "HgN/A
10:50 AM64 °FPartly sunny.No wind68%29.80 "HgN/A
10:20 AM63 °FPartly sunny.No wind68%29.80 "HgN/A
9:50 AM59 °FPartly sunny.No wind77%29.80 "HgN/A
9:20 AM54 °FPartly sunny.No wind88%29.83 "HgN/A
8:50 AM54 °FPartly sunny.No wind88%29.83 "HgN/A
8:20 AM52 °FPartly sunny.No wind94%29.83 "HgN/A
7:50 AM52 °FPartly sunny.No wind94%29.83 "HgN/A
7:20 AM52 °FPartly sunny.No wind94%29.83 "HgN/A
Weather by CustomWeather, © 2015

See weather overviewHow to use our weather pages